Regional Weather Roundup
Issued by NWS

Home | Current Version | Previous Version | Graphics & Text | Print | Product List | Glossary On
Versions: 1 2 3 4 5 6 7 8 9 10 11 12 13 14 15 16 17 18 19 20 21 22 23 24 25 26 27
000
ASUS45 KSLC 231610
RWRUT

UTAH REGIONAL WEATHER ROUNDUP
NATIONAL WEATHER SERVICE SALT LAKE CITY UT
1000 AM MDT SAT JUL 23 2016

UTZ001>011-023>025-231700-

NORTHERN UTAH

CITY           SKY/WX    TMP DP  RH WIND       PRES   REMARKS
BRIGHAM CITY     N/A     76  30  18 CALM      30.16S
HILL AFB       SUNNY     76  39  26 VRB2      30.19R
LOGAN          SUNNY     70  42  36 VRB3      30.18F
OGDEN          SUNNY     77  38  24 CALM      30.16S
PROVO AIRPORT  SUNNY     75  46  35 CALM      30.18S
SALT LAKE CITY MOSUNNY   82  32  16 NW5       30.15S
VERNAL         SUNNY     76  52  43 S5        30.19F
WENDOVER       SUNNY     79  28  15 E5        30.19S
HEBER CITY     SUNNY     72  45  37 CALM      30.23S

$$

UTZ012>022-026-027-231700-

SOUTHERN/CENTRAL UTAH

CITY           SKY/WX    TMP DP  RH WIND       PRES   REMARKS
BLANDING       SUNNY     79  47  32 S6        30.32S
BRYCE CANYON   SUNNY     78  35  21 W10       30.37F
CEDAR CITY     SUNNY     81  43  26 CALM      30.21S
DELTA          SUNNY     81  30  16 NE3       30.18S
MILFORD        SUNNY     82  27  13 N13       30.18S
MOAB/CYNLANDS  SUNNY     84  50  30 E6        30.12S
PRICE          SUNNY     78  48  34 CALM      30.23S
ST GEORGE      SUNNY     91  46  21 CALM      30.02S
KANAB          SUNNY     84  46  26 CALM      30.19

$$

REGIONAL REPORTS     COLORADO/ARIZONA

CITY           SKY/WX    TMP DP  RH WIND       PRES   REMARKS
CRAIG, CO      SUNNY     77  46  33 N3        30.26F
GRAND JUNCTION SUNNY     78  53  41 SE9       30.17F
RIFLE          SUNNY     74  50  42 CALM      30.23F
MONTROSE       SUNNY     76  49  38 CALM      30.26F
CORTEZ         SUNNY     80  47  31 VRB3      30.25F
PAGE, AZ       SUNNY     87  48  25 VRB3      30.12S
GRAND CANYON   SUNNY     83  41  22 VRB6      30.32S
KINGMAN        SUNNY     94  47  20 VRB5      30.04S HX  90
FLAGSTAFF      MOSUNNY   79  43  27 VRB5      30.34S

$$

REGIONAL REPORTS    NEVADA/IDAHO/WYOMING

CITY           SKY/WX    TMP DP  RH WIND       PRES   REMARKS
LAS VEGAS, NV  MOSUNNY   98  29   8 NW5       29.88S HX  92
ELY            SUNNY     68  22  17 N6        30.29F
ELKO           SUNNY     67  26  21 CALM      30.24F
POCATELLO, ID  SUNNY     69  41  36 SW21      30.21S
BURLEY         SUNNY     67  43  41 W16G24    30.19S
EVANSTON, WY   SUNNY     71  29  21 VRB5      30.34S
ROCK SPRINGS   SUNNY     74  24  15 W13       30.28S
KEMMERER         N/A     72  21  15 W13G21    30.33F

$$




USA.gov is the U.S. government's official web portal to all federal, state and local government web resources and services.